COSMOS 2251 DEB, 34885

Orbit data source: Space-Track

COSMOS 2251 DEB, 34885 is space debris in LEO originally from a launch on Wed, 16 Jun 1993 UTC launched from the Plesetsk Missile And Space Complex (PKMTR). The debris from Iridium 33, an American commercial communications satellite, has been tracked extensively since its accidental collision with the defunct Russian satellite Cosmos 2251 in 2009. This event, occurring at high speed in low Earth orbit (LEO), generated thousands of pieces of space debris, significantly increasing the risk of further collisions. The Iridium 33 debris cloud has impacted space traffic management and orbital debris mitigation strategies, making it a subject of ongoing study in space situational awareness.

Loading next visibility...
Identifier
34885, 1993-036ACY
Orbit
LEO
Country
Flag of CISCIS
Related business
Manufacturer
Unknown
Mission
Spacecraft
Bus & Motor
Unknown
Mass
Unknown
Launch date (UTC)
1993-06-16 (33 years ago)
Launch vehicle
Unknown
Launch site
Plesetsk Missile And Space Complex (PKMTR)
Object type
Payload
Rocket body
Debris
Shape & HBR
Unknown shape, 0.1 m
Radar Cross Section
Medium (>0.1 m² and <1 m²)

Expand to show TLE details & history
Last TLE update: 8 hours ago

TLE from 8 hours ago
0 COSMOS 2251 DEB
1 34885U 93036ACY 26208.20917897  .00002090  00000-0  51636-3 0  9995
2 34885  74.0305 116.1375 0014580 151.2255   2.2122 14.52648357907664
Epoch: 2026-07-27T05:01Z
TLE epoch observation values (Epoch: 2026-07-27T05:01:13.063Z)
Latitude
25.49415°
Longitude
-91.86362°
Altitude
709.469 km
Speed
7.509 km/s
True Right ascension
19h 13m 20s
True Declination
25° 21' 36"
Sunlit
Object was in full shadow at epoch
Visualization orbit readout
Latitude
Unknown
Longitude
Unknown
Altitude
Unknown
Speed
Unknown
Apparent Right ascension
Unknown
Apparent Declination
Unknown
Sunlit
N/A
Visualization observer readout
Local Sidereal Time
02:23:51
Azimuth
Unknown
Elevation
Unknown
Doppler factor
Unknown
Orbital elements
Apogee altitude
724.959 km
Perigee altitude
704.277 km
Semi-major axis
7,092.755 km
Eccentricity
0.00146
Inclination
74.0305°
RAAN
116.1375°
Arg. of periapsis
151.2255°
True anomaly
2.21866°
Mean anomaly
2.2122°
Eccentric anomaly
2.21543°
Mean motion
3.63346 °/min
Orbital period
99.08 mins
BSTAR
0.00051636
Loading maneuver chart data...
Computing Atmospheric mass density...

Documentation

Showing up to 5 results
|